Voltar ao catálogo

PSLV DEB

AtivoSSO
NORAD 27146·DEBRIS·🇮🇳 India

Lançado Oct 22, 2001 de Satish Dhawan Space Centre

Loading…

Próximas Passagens (próximas 24 horas)

TLE

AtualizadoSource: Space-Track

Época: Sep 14, 2026, 11:47 UTC

1 27146U 01049CS  26257.49124389  .00002382  00000-0  20772-3 0  9992
2 27146  98.0380 341.0967 0034560 347.4469  25.2144 14.97446987329860

Acompanhe PSLV DEB em tempo real com AllMySat

Download on the App Store